Torna al catalogo

SL-16 DEB

AttivoLEO
NORAD 22224·DEBRIS·🇷🇺 Russia

Lanciato Nov 17, 1992 da Baikonur Cosmodrome

Loading…

Prossimi Passaggi (prossime 24 ore)

TLE

AggiornatoSource: Space-Track

Epoca: Sep 14, 2026, 13:03 UTC

1 22224U 92076F   26257.54399149  .00000019  00000-0  57523-4 0  9998
2 22224  70.9899  91.1232 0195847 218.1151 140.5965 13.74981658696729

Traccia SL-16 DEB in tempo reale con AllMySat

Download on the App Store